Tracking 30101 objects as of 13-Dec-2024
HD Live streaming from Space Station
objects crossing your sky now

STARLINK-6076

Track STARLINK-6076 now!
10-day predictions
STARLINK-6076 is classified as:


NORAD ID: 56100
Int'l Code: 2023-046H
Perigee: 565.4 km
Apogee: 567.1 km
Inclination: 43.0 °
Period: 95.8 minutes
Semi major axis: 6937 km
RCS: Unknown
Launch date: March 29, 2023
Source: United States (US)
Launch site: AIR FORCE EASTERN TEST RANGE (AFETR)
Your satellite tracking list
Your tracking list is empty




NASA's NSSDC Master Catalog

Two Line Element Set (TLE):
1 56100U 23046H   24347.65738688  .00000671  00000-0  64777-4 0  9997
2 56100  43.0037  95.2551 0001173 265.4711  94.5998 15.02529266 94067
Source of the keplerian elements: AFSPC